Miscellaneous Local Product
Issued by NWS North Platte, NE

Home | Current Version | Previous Version | Text Only | Print | Product List | Glossary On
Versions: 1 2 3 4 5 6 7 8 9 10 11 12 13 14 15 16 17 18 19 20 21 22 23 24 25 26 27 28 29 30 31 32 33 34 35 36 37 38 39 40 41 42 43 44 45 46 47 48 49 50
000
AXUS43 KLBF 300510
MISLBF


WESTERN AND NORTH CENTRAL NEBRASKA HOURLY WEATHER ROUNDUP
NATIONAL WEATHER SERVICE NORTH PLATTE NE
1200 AM CDT SUN APR 30 2017

NOTE: "FAIR" INDICATES FEW OR NO CLOUDS BELOW 12,000 FEET WITH NO
SIGNIFICANT WEATHER AND/OR OBSTRUCTIONS TO VISIBILITY.

NOTE: STATIONS NOT REPORTING VARIABLES SUCH AS SKY/WEATHER OR
PRESSURE ARE PROVIDED BY RAWS AND APRS NETWORKS AND ARE NOT UNDER
NATIONAL WEATHER SERVICE QUALITY CONTROL.

...OBSERVATIONS IN AND NEAR THE EASTERN PANHANDLE OF NEBRASKA...

CITY           SKY/WX    TMP DP  RH WIND       PRES   REMARKS
PINE RIDGE     CLEAR     32  27  81 CALM      30.17F
CHADRON        CLEAR     32  28  85 W7        30.18F WCI  26
ALLIANCE       MOCLDY    35  27  72 N8        30.15F WCI  29
SIDNEY         PTCLDY    37  28  70 N14       30.13F WCI  28
CRESCENT LAKE    N/A     38  26  61 N6          N/A  WCI  33
$$

...OBSERVATIONS IN NORTHERN NEBRASKA AND FAR SOUTHERN SOUTH DAKOTA...

CITY           SKY/WX    TMP DP  RH WIND       PRES   REMARKS
WINNER         FAIR      44  28  53 NE7       30.17F
VALENTINE      CLOUDY    46  21  37 NE6       30.17S
THEDFORD       CLOUDY    44  25  47 NE10      30.15R
AINSWORTH      CLOUDY    42  28  58 NE5       30.15S
O`NEILL        CLOUDY    45  24  42 NE10      30.11F
ORD            CLOUDY    44  25  47 NE14      30.08R
BROKEN BOW     CLOUDY    43  25  49 NE20G29   30.09S
VALENTINE NWR    N/A     43  23  45 NE8         N/A
HALSEY           N/A     44  19  36 N7G16       N/A
BUTTE            N/A     45  28  50 CALM        N/A
CHAMBERS         N/A     44  23  43 E5          N/A
EWING            N/A     44  30  57 NE9G16      N/A
$$

...OBSERVATIONS IN SOUTHWEST NEBRASKA AND FAR NORTHEAST COLORADO...

CITY           SKY/WX    TMP DP  RH WIND       PRES   REMARKS
HOLYOKE        FAIR      41  27  56 N10       30.11R
IMPERIAL       CLOUDY    41  26  55 N14       30.07F
OGALLALA       CLOUDY    44  26  50 NE13      30.11S
NORTH PLATTE   CLOUDY    44  21  40 NE21G31   30.09F
MCCOOK         MIX PCPN  36  33  89 NE26G35   30.04F WCI  24
LEXINGTON      LGT RAIN  39  29  68 NE25G39   30.05F WCI  28
STAPLETON        N/A     41  23  48 E5          N/A
GOTHENBURG       N/A     41  23  49 NE15        N/A
CALLAWAY         N/A     41  27  56 NE20        N/A
$$

...OBSERVATIONS IN CENTRAL LINCOLN COUNTY AREA...

CITY           SKY/WX    TMP DP  RH WIND       PRES   REMARKS
N.P. AIRPORT   CLOUDY    44  21  40 NE21G31   30.09F
N.P. DOWNTOWN    N/A     43  23  45 NE16G30     N/A
N.P. SOUTHEAST   N/A     43  23  44 NE12G23     N/A
N.P. HILLCREST   N/A     43  23  44 NE24G39     N/A
$$

...SOME OBSERVATIONS FROM AROUND THE REGION...

CITY           SKY/WX    TMP DP  RH WIND       PRES   REMARKS
DENVER         CLOUDY    30  23  75 W15       30.15F WCI  19
LIMON          LGT SNOW  29  28  96 N23G32    30.07F FOG     WCI  15
ASPEN          CLOUDY    29  20  69 CALM      30.11S
LARAMIE        CLOUDY    17  14  88 W7        30.18F WCI   8
CASPER         CLEAR     26  21  81 CALM      30.20F
CHEYENNE       CLEAR     30  15  53 NW15      30.15F WCI  19
SCOTTSBLUFF    CLEAR     33  26  75 NW5       30.18F WCI  29
GRAND ISLAND   LGT RAIN  38  36  92 N18G25    30.03S WCI  28
OMAHA          DRIZZLE   41  36  82 NE22      29.96F
SIOUX FALLS    CLOUDY    46  28  49 NE10      30.13F
PIERRE         MOCLDY    43  21  41 E6        30.18F
RAPID CITY     PTCLDY    32  22  66 NW3       30.18F
BISMARCK       CLOUDY    42  28  57 SE7       30.19F
KANSAS CITY    LGT RAIN  44  42  93 N7        29.78R
HILL CITY      LGT SNOW  34  34 100 N21G30    29.99S FOG     WCI  22
WICHITA        LGT RAIN  45  44  97 N20G30    29.67F FOG
DODGE CITY     MIX PCPN  35  33  92 N32G43    29.75F WCI  21
OKLAHOMA CITY  CLOUDY    48  47  96 W13       29.69F FOG
DALLAS         CLOUDY    58  48  69 W14       29.75F
AMARILLO       LGT SNOW  33  32  96 NW25G37   29.88F FOG     WCI  20
$$




USA.gov is the U.S. government's official web portal to all federal, state and local government web resources and services.